User: anonymous   Login
Location: Caltech
(34.1382°N, 118.1253°W)
Time: 05:16:05
(UTC-07:00)
Language:

Cosmos 2219 - Orbit

View from above orbital plane
View from above orbital plane
View from above satellite
View from above satellite

Ground track
Ground track

The orbit data is extracted from the following two-line orbital elements,

1 22219U 92076A   17172.58699957 +.00000273 +00000-0 +16963-3 0  9996
2 22219 071.0574 188.5274 0017382 017.1805 342.9902 14.13606904268515
Epoch (UTC): 21 June 2017 14:05:16
Eccentricity: 0.0017382
inclination: 71.0574°
perigee height: 834 km
apogee height: 859 km
right ascension of ascending node: 188.5274°
argument of perigee: 17.1805°
revolutions per day: 14.13606904
mean anomaly at epoch: 342.9902°
orbit number at epoch: 26851

The dashed part of the orbit path shows where the satellite is in the earth's shadow,  

DLR